Regional Weather Roundup
Issued by NWS

Home | Current Version | Previous Version | Graphics & Text | Print | Product List | Glossary On
Versions: 1 2 3 4 5 6 7 8 9 10 11 12 13 14 15 16 17 18 19 20 21 22 23 24 25 26 27 28 29 30 31 32 33 34 35 36 37 38 39 40 41 42 43 44 45 46 47 48 49 50
000
ASUS43 KFSD 171810
RWRSD

WEATHER ROUNDUP FOR SOUTH DAKOTA
NATIONAL WEATHER SERVICE SIOUX FALLS SD
100 PM CDT THU APR 17 2014

NOTE: "FAIR" INDICATES FEW OR NO CLOUDS BELOW 12,000 FEET WITH NO
SIGNIFICANT WEATHER AND/OR OBSTRUCTIONS TO VISIBILITY.


SDZ001>005-009-010-012>017-171900-
NORTHWEST AND NORTH CENTRAL SOUTH DAKOTA

CITY           SKY/WX    TMP DP  RH WIND       PRES   REMARKS
BUFFALO          N/A     39  32  76 SE21      30.02F
FAITH            N/A     40  21  46 SE26      30.16F
MOBRIDGE       PTSUNNY   38  17  42 S10       30.23F
$$

SDZ012>016-024>037-041>051-057-063-072>074-171900-
SOUTHWEST AND SOUTH CENTRAL SOUTH DAKOTA

CITY           SKY/WX    TMP DP  RH WIND       PRES   REMARKS
RAPID CTY ARPT PTSUNNY   46  32  58 S20G29    30.09F
PIERRE         CLOUDY    40  19  43 SE13      30.27S
CUSTER         CLOUDY    32  29  88 SW8       30.05F WCI  25
ELLSWORTH AFB  MOSUNNY   46  33  61 S23G29    30.07F
PHILIP         CLOUDY    37  25  61 SE15      30.21S
PINE RIDGE     CLOUDY    44  32  62 S15       30.14S
SPEARFISH      FAIR      46  32  57 N5        30.05S
WINNER         CLOUDY    42  18  37 SE13      30.26F
$$

SDZ004>011-016>023-039-040-171900-
NORTHEAST SOUTH DAKOTA

CITY           SKY/WX    TMP DP  RH WIND       PRES   REMARKS
ABERDEEN       SUNNY     39  15  37 W5        30.31F
WATERTOWN      PTSUNNY   36  16  44 N9        30.29F
SISSETON         N/A     38  18  44 CALM      30.31F
$$

SDZ017-020-022-023-036>040-048>070-171900-
SOUTHEAST SOUTH DAKOTA

CITY           SKY/WX    TMP DP  RH WIND       PRES   REMARKS
SIOUX FALLS    PTSUNNY   37  27  67 NE10      30.32F
HURON          SUNNY     38  19  46 VRB3      30.33F
CHAMBERLAIN      N/A     43  20  39 SE13G20   30.30F
MITCHELL       SUNNY     42  17  36 SE5       30.33F
YANKTON        SUNNY     43  23  45 NE3       30.34S
$$

ABBREVIATIONS USED IN REMARKS
   TC - TEMPERATURE IN CELSIUS
  WCI - WIND CHILL INDEX
   HX - HEAT INDEX
  VSB - VISIBILITY




USA.gov is the U.S. government's official web portal to all federal, state and local government web resources and services.